SWA2447 KDAL-KMAF

Flight info

Callsign SWA2447
Flight time 1h 5m
Altitude 30000
Route KKITY5 DOSXX
Aircraft B738/M-SDE2E3FGHIRWXY/LB1

Departure

Time 2026-04-18 03:42
Airport Dallas Love Field (KDAL)

Arrival

Time 2026-04-18 04:47
Airport Midland International Air and Space Port (KMAF)
Time Latitude Longitude Altitude Speed Heading
2026-04-18 03:38 32.85217 -96.85375 483 ft 9 kts 314°
2026-04-18 03:39 32.85276 -96.85438 483 ft 20 kts 320°
2026-04-18 03:39 32.85459 -96.85639 478 ft 38 kts 314°
2026-04-18 03:39 32.85556 -96.85751 474 ft 12 kts 321°
2026-04-18 03:39 32.85567 -96.85761 473 ft 4 kts 322°
2026-04-18 03:40 32.85643 -96.85771 472 ft 17 kts 47°
2026-04-18 03:40 32.85658 -96.85750 472 ft 0 kts 52°
2026-04-18 03:41 32.85691 -96.85702 472 ft 18 kts 56°
2026-04-18 03:41 32.85653 -96.85590 475 ft 0 kts 135°
2026-04-18 03:41 32.85652 -96.85590 475 ft 0 kts 135°
2026-04-18 03:41 32.85592 -96.85528 477 ft 22 kts 140°
2026-04-18 03:42 32.85276 -96.85156 486 ft 122 kts 136°
2026-04-18 03:42 32.84523 -96.84277 687 ft 194 kts 138°
2026-04-18 03:42 32.83416 -96.83115 1652 ft 226 kts 150°
2026-04-18 03:42 32.82169 -96.82268 3066 ft 228 kts 150°
2026-04-18 03:43 32.81012 -96.80942 4107 ft 252 kts 136°
2026-04-18 03:43 32.79955 -96.79516 5295 ft 260 kts 138°
2026-04-18 03:43 32.78645 -96.77935 5880 ft 269 kts 141°
2026-04-18 03:43 32.77285 -96.76442 5962 ft 269 kts 142°
2026-04-18 03:44 32.75915 -96.74989 5960 ft 269 kts 142°
2026-04-18 03:44 32.74535 -96.73470 6495 ft 295 kts 141°
2026-04-18 03:44 32.73006 -96.71908 7888 ft 295 kts 148°
2026-04-18 03:44 32.71195 -96.70900 9287 ft 288 kts 172°
2026-04-18 03:45 32.69333 -96.70876 10571 ft 283 kts 193°
2026-04-18 03:45 32.67514 -96.71582 11470 ft 293 kts 207°
2026-04-18 03:45 32.65622 -96.72681 12338 ft 309 kts 210°
2026-04-18 03:45 32.63853 -96.74123 13156 ft 322 kts 224°
2026-04-18 03:46 32.62482 -96.76235 14246 ft 327 kts 243°
2026-04-18 03:46 32.61715 -96.78743 15416 ft 330 kts 257°
2026-04-18 03:46 32.61413 -96.81375 16615 ft 332 kts 265°
2026-04-18 03:46 32.61358 -96.84093 17710 ft 336 kts 269°
2026-04-18 03:47 32.61407 -96.86829 18785 ft 339 kts 269°
2026-04-18 03:47 32.61473 -96.89618 19809 ft 343 kts 269°
2026-04-18 03:47 32.61521 -96.92453 20800 ft 347 kts 268°
2026-04-18 03:47 32.61551 -96.95300 21761 ft 350 kts 267°
2026-04-18 03:48 32.61570 -96.98181 22677 ft 353 kts 267°
2026-04-18 03:48 32.61583 -97.01082 23568 ft 357 kts 266°
2026-04-18 03:48 32.61592 -97.04020 24471 ft 359 kts 266°
2026-04-18 03:48 32.61600 -97.06991 25285 ft 364 kts 266°
2026-04-18 03:49 32.61607 -97.10011 26104 ft 367 kts 266°
2026-04-18 03:49 32.61612 -97.12984 26868 ft 370 kts 266°
2026-04-18 03:49 32.61617 -97.15906 27716 ft 370 kts 266°
2026-04-18 03:49 32.61623 -97.18991 28601 ft 370 kts 266°
2026-04-18 03:50 32.61631 -97.21863 29668 ft 362 kts 266°
2026-04-18 03:50 32.61637 -97.24817 29962 ft 364 kts 266°
2026-04-18 03:50 32.61653 -97.30868 29824 ft 366 kts 266°
2026-04-18 03:51 32.62138 -97.36745 29962 ft 365 kts 273°
2026-04-18 03:51 32.63050 -97.42733 29955 ft 366 kts 275°
2026-04-18 03:52 32.64009 -97.48693 29954 ft 371 kts 275°
2026-04-18 03:52 32.64954 -97.54678 29957 ft 368 kts 275°
2026-04-18 03:53 32.65870 -97.60634 29952 ft 369 kts 275°
2026-04-18 03:53 32.66759 -97.66474 29955 ft 371 kts 274°
2026-04-18 03:54 32.67527 -97.72543 29950 ft 366 kts 269°
2026-04-18 03:54 32.67472 -97.78507 29940 ft 360 kts 262°
2026-04-18 03:55 32.67009 -97.84459 29947 ft 362 kts 260°
2026-04-18 03:55 32.66636 -97.88902 29943 ft 360 kts 260°
2026-04-18 03:56 32.66392 -97.91833 29947 ft 363 kts 260°
2026-04-18 03:56 32.65862 -97.98356 29946 ft 361 kts 261°
2026-04-18 03:57 32.65172 -98.07004 29941 ft 361 kts 260°
2026-04-18 03:58 32.64695 -98.12965 29938 ft 359 kts 261°
2026-04-18 03:58 32.64221 -98.18874 29938 ft 361 kts 260°
2026-04-18 03:59 32.63743 -98.24783 29936 ft 361 kts 261°
2026-04-18 03:59 32.63264 -98.30698 29932 ft 361 kts 261°
2026-04-18 04:00 32.62784 -98.36607 29932 ft 361 kts 260°
2026-04-18 04:00 32.62301 -98.42491 29938 ft 359 kts 261°
2026-04-18 04:01 32.61813 -98.48410 29936 ft 362 kts 260°
2026-04-18 04:01 32.61325 -98.54318 29938 ft 361 kts 261°
2026-04-18 04:02 32.60830 -98.60262 29931 ft 359 kts 261°
2026-04-18 04:02 32.60338 -98.66147 29931 ft 361 kts 259°
2026-04-18 04:03 32.59839 -98.72057 29929 ft 359 kts 259°
2026-04-18 04:03 32.59343 -98.77928 29935 ft 359 kts 260°
2026-04-18 04:04 32.58840 -98.83813 29934 ft 358 kts 259°
2026-04-18 04:04 32.58336 -98.89685 29933 ft 358 kts 259°
2026-04-18 04:05 32.57829 -98.95568 29927 ft 360 kts 259°
2026-04-18 04:05 32.57318 -99.01477 29931 ft 358 kts 260°
2026-04-18 04:06 32.56805 -99.07359 29924 ft 359 kts 260°
2026-04-18 04:06 32.56293 -99.13201 29926 ft 358 kts 259°
2026-04-18 04:07 32.55770 -99.19116 29918 ft 359 kts 260°
2026-04-18 04:07 32.55254 -99.24963 29919 ft 357 kts 260°
2026-04-18 04:08 32.54727 -99.30800 29922 ft 357 kts 259°
2026-04-18 04:08 32.53759 -99.36543 29923 ft 355 kts 252°
2026-04-18 04:09 32.52402 -99.42129 29927 ft 352 kts 251°
2026-04-18 04:09 32.50998 -99.47736 29930 ft 355 kts 251°
2026-04-18 04:10 32.49606 -99.53362 29932 ft 354 kts 251°
2026-04-18 04:10 32.48244 -99.58917 29930 ft 353 kts 251°
2026-04-18 04:11 32.46867 -99.64528 29930 ft 354 kts 251°
2026-04-18 04:11 32.45512 -99.70057 29931 ft 353 kts 250°
2026-04-18 04:12 32.44138 -99.75639 29928 ft 352 kts 251°
2026-04-18 04:12 32.42775 -99.81168 29924 ft 350 kts 251°
2026-04-18 04:13 32.41404 -99.86719 29929 ft 354 kts 250°
2026-04-18 04:13 32.40023 -99.92303 29927 ft 351 kts 251°
2026-04-18 04:14 32.38636 -99.97847 29933 ft 351 kts 250°
2026-04-18 04:14 32.37199 -100.03371 29926 ft 351 kts 250°
2026-04-18 04:15 32.35757 -100.08868 29925 ft 351 kts 250°
2026-04-18 04:15 32.34309 -100.14404 29929 ft 350 kts 250°
2026-04-18 04:16 32.32865 -100.19915 29937 ft 350 kts 250°
2026-04-18 04:16 32.31413 -100.25452 29936 ft 352 kts 250°
2026-04-18 04:17 32.29972 -100.30943 29943 ft 351 kts 250°
2026-04-18 04:17 32.28526 -100.36448 29943 ft 350 kts 250°
2026-04-18 04:18 32.27077 -100.41951 29945 ft 350 kts 250°
2026-04-18 04:18 32.25617 -100.47484 29949 ft 351 kts 250°
2026-04-18 04:19 32.24213 -100.52792 29942 ft 348 kts 250°
2026-04-18 04:19 32.23469 -100.55608 29697 ft 337 kts 250°
2026-04-18 04:19 32.22781 -100.58225 29472 ft 325 kts 249°
2026-04-18 04:19 32.22114 -100.60749 29130 ft 317 kts 250°
2026-04-18 04:20 32.21453 -100.63237 28671 ft 318 kts 249°
2026-04-18 04:20 32.20771 -100.65775 28179 ft 336 kts 249°
2026-04-18 04:20 32.20060 -100.68430 27633 ft 338 kts 249°
2026-04-18 04:20 32.19362 -100.71049 27098 ft 333 kts 249°
2026-04-18 04:21 32.18674 -100.73643 26563 ft 328 kts 249°
2026-04-18 04:21 32.17996 -100.76187 26053 ft 324 kts 249°
2026-04-18 04:21 32.17324 -100.78709 25551 ft 319 kts 248°
2026-04-18 04:21 32.16662 -100.81191 25052 ft 315 kts 249°
2026-04-18 04:22 32.16003 -100.83658 24556 ft 311 kts 249°
2026-04-18 04:22 32.15356 -100.86076 24061 ft 307 kts 249°
2026-04-18 04:22 32.14716 -100.88465 23576 ft 303 kts 249°
2026-04-18 04:22 32.14077 -100.90846 23098 ft 298 kts 249°
2026-04-18 04:23 32.13460 -100.93141 22646 ft 295 kts 248°
2026-04-18 04:23 32.12822 -100.95503 22186 ft 306 kts 249°
2026-04-18 04:23 32.12170 -100.97913 21706 ft 314 kts 249°
2026-04-18 04:23 32.11515 -101.00344 21215 ft 311 kts 249°
2026-04-18 04:24 32.10858 -101.02792 20733 ft 306 kts 250°
2026-04-18 04:24 32.10218 -101.05175 20265 ft 300 kts 249°
2026-04-18 04:24 32.09590 -101.07513 19799 ft 296 kts 249°
2026-04-18 04:24 32.08972 -101.09808 19345 ft 291 kts 249°
2026-04-18 04:25 32.08366 -101.12062 18894 ft 287 kts 250°
2026-04-18 04:25 32.07777 -101.14265 18626 ft 276 kts 250°
2026-04-18 04:25 32.07211 -101.16383 18496 ft 278 kts 250°
2026-04-18 04:25 32.06595 -101.18655 18387 ft 296 kts 250°
2026-04-18 04:26 32.05974 -101.20948 18257 ft 286 kts 250°
2026-04-18 04:26 32.05384 -101.23141 18141 ft 272 kts 250°
2026-04-18 04:26 32.04791 -101.25335 18008 ft 290 kts 249°
2026-04-18 04:26 32.04167 -101.27625 17625 ft 296 kts 250°
2026-04-18 04:27 32.03538 -101.29938 17146 ft 294 kts 250°
2026-04-18 04:27 32.02922 -101.32208 16700 ft 288 kts 250°
2026-04-18 04:27 32.02320 -101.34425 16265 ft 282 kts 249°
2026-04-18 04:27 32.01733 -101.36592 15825 ft 277 kts 250°
2026-04-18 04:28 32.01139 -101.38760 15403 ft 272 kts 249°
2026-04-18 04:28 32.00557 -101.40862 14993 ft 273 kts 250°
2026-04-18 04:28 31.99939 -101.43080 14563 ft 287 kts 250°
2026-04-18 04:28 31.99319 -101.45331 14119 ft 285 kts 250°
2026-04-18 04:29 31.98718 -101.47527 13681 ft 280 kts 250°
2026-04-18 04:29 31.98125 -101.49700 13253 ft 274 kts 251°
2026-04-18 04:29 31.97549 -101.51807 12845 ft 269 kts 250°
2026-04-18 04:29 31.96976 -101.53893 12441 ft 266 kts 250°
2026-04-18 04:30 31.96401 -101.55979 12043 ft 280 kts 251°
2026-04-18 04:30 31.95792 -101.58186 11609 ft 284 kts 251°
2026-04-18 04:30 31.95189 -101.60375 11176 ft 279 kts 251°
2026-04-18 04:30 31.94598 -101.62533 10759 ft 275 kts 251°
2026-04-18 04:31 31.94019 -101.64653 10385 ft 269 kts 251°
2026-04-18 04:31 31.93452 -101.66726 10186 ft 258 kts 251°
2026-04-18 04:31 31.92909 -101.68703 10031 ft 248 kts 251°
2026-04-18 04:31 31.92365 -101.70675 9601 ft 266 kts 251°
2026-04-18 04:32 31.91787 -101.72766 9127 ft 271 kts 251°
2026-04-18 04:32 31.91209 -101.74851 8768 ft 254 kts 251°
2026-04-18 04:32 31.90690 -101.76723 8620 ft 233 kts 251°
2026-04-18 04:32 31.90184 -101.78549 8347 ft 241 kts 252°
2026-04-18 04:33 31.89652 -101.80467 8027 ft 253 kts 252°
2026-04-18 04:33 31.89104 -101.82447 7749 ft 255 kts 252°
2026-04-18 04:33 31.88556 -101.84425 7230 ft 253 kts 252°
2026-04-18 04:33 31.88013 -101.86379 6739 ft 251 kts 253°
2026-04-18 04:34 31.87475 -101.88323 6223 ft 251 kts 253°
2026-04-18 04:34 31.86947 -101.90233 5698 ft 241 kts 253°
2026-04-18 04:34 31.86435 -101.92079 5178 ft 239 kts 252°
2026-04-18 04:34 31.85923 -101.93922 4656 ft 238 kts 251°
2026-04-18 04:35 31.85507 -101.95815 4284 ft 236 kts 261°
2026-04-18 04:35 31.85666 -101.97739 4279 ft 236 kts 286°
2026-04-18 04:35 31.86330 -101.99438 4284 ft 224 kts 295°
2026-04-18 04:35 31.86995 -102.00932 4290 ft 194 kts 294°
2026-04-18 04:36 31.87551 -102.02298 4275 ft 182 kts 291°
2026-04-18 04:36 31.88049 -102.03611 4272 ft 166 kts 290°
2026-04-18 04:36 31.88507 -102.04832 4280 ft 163 kts 289°
2026-04-18 04:36 31.88956 -102.06034 4280 ft 159 kts 290°
2026-04-18 04:37 31.89409 -102.07252 4286 ft 159 kts 290°
2026-04-18 04:37 31.89856 -102.08447 4286 ft 160 kts 290°
2026-04-18 04:37 31.90309 -102.09659 4291 ft 160 kts 290°
2026-04-18 04:37 31.90752 -102.10844 4289 ft 158 kts 290°
2026-04-18 04:38 31.91204 -102.12059 4288 ft 160 kts 290°
2026-04-18 04:38 31.91662 -102.13267 4252 ft 162 kts 288°
2026-04-18 04:38 31.92089 -102.14499 3976 ft 160 kts 288°
2026-04-18 04:38 31.92545 -102.15689 3709 ft 161 kts 290°
2026-04-18 04:39 31.92980 -102.16893 3418 ft 164 kts 289°
2026-04-18 04:39 31.93444 -102.18112 3178 ft 163 kts 289°
2026-04-18 04:39 31.93895 -102.19315 2908 ft 159 kts 290°
2026-04-18 04:39 31.94328 -102.20455 2940 ft 147 kts 289°
2026-04-18 04:40 31.94782 -102.21626 3689 ft 175 kts 290°
2026-04-18 04:40 31.95375 -102.23174 4163 ft 237 kts 291°
2026-04-18 04:40 31.96007 -102.24879 4992 ft 219 kts 289°
2026-04-18 04:40 31.96161 -102.26617 5040 ft 211 kts 258°
2026-04-18 04:41 31.95536 -102.28175 5016 ft 210 kts 228°
2026-04-18 04:41 31.94332 -102.29108 5047 ft 213 kts 207°
2026-04-18 04:41 31.92906 -102.29591 5026 ft 216 kts 182°
2026-04-18 04:41 31.91422 -102.29105 5041 ft 223 kts 158°
2026-04-18 04:42 31.90109 -102.28124 5017 ft 226 kts 137°
2026-04-18 04:42 31.89151 -102.26653 5013 ft 230 kts 126°
2026-04-18 04:42 31.88262 -102.25033 4756 ft 232 kts 125°
2026-04-18 04:42 31.87400 -102.23453 4718 ft 225 kts 126°
2026-04-18 04:43 31.86550 -102.21894 4720 ft 227 kts 125°
2026-04-18 04:43 31.85779 -102.20277 4715 ft 230 kts 110°
2026-04-18 04:43 31.85618 -102.18379 4540 ft 234 kts 88°
2026-04-18 04:43 31.85592 -102.16473 4229 ft 233 kts 104°
2026-04-18 04:44 31.85120 -102.14689 4278 ft 225 kts 110°
2026-04-18 04:44 31.84999 -102.12859 4275 ft 229 kts 78°
2026-04-18 04:44 31.85574 -102.11097 4282 ft 231 kts 64°
2026-04-18 04:44 31.86566 -102.09641 4277 ft 225 kts 31°
2026-04-18 04:45 31.87989 -102.09225 4296 ft 203 kts 350°
2026-04-18 04:45 31.89345 -102.09672 4274 ft 198 kts 327°
2026-04-18 04:45 31.90364 -102.10674 4162 ft 192 kts 309°
2026-04-18 04:45 31.91151 -102.11893 3866 ft 181 kts 294°
2026-04-18 04:46 31.91651 -102.13189 3830 ft 157 kts 288°
2026-04-18 04:46 31.92051 -102.14373 3951 ft 157 kts 288°
2026-04-18 04:46 31.92488 -102.15542 3639 ft 156 kts 291°
2026-04-18 04:46 31.92922 -102.16688 3354 ft 154 kts 288°
2026-04-18 04:47 31.93341 -102.17854 3132 ft 154 kts 290°
2026-04-18 04:47 31.93776 -102.18988 2944 ft 153 kts 290°
2026-04-18 04:47 31.94189 -102.20083 2862 ft 132 kts 290°
2026-04-18 04:47 31.94409 -102.20686 2863 ft 31 kts 294°
2026-04-18 04:48 31.94483 -102.20940 2866 ft 17 kts 237°
2026-04-18 04:48 31.94401 -102.20972 2865 ft 9 kts 112°
2026-04-18 04:48 31.94381 -102.20936 2865 ft 9 kts 128°